CST,Max TemperatureF,Mean TemperatureF,Min TemperatureF,Max Dew PointF,MeanDew PointF,Min DewpointF,Max Humidity, Mean Humidity, Min Humidity, Max Sea Level PressureIn, Mean Sea Level PressureIn, Min Sea Level PressureIn, Max VisibilityMiles, Mean VisibilityMiles, Min VisibilityMiles, Max Wind SpeedMPH, Mean Wind SpeedMPH, Max Gust SpeedMPH,PrecipitationIn, CloudCover, Events, WindDirDegrees
2013-1-1,22,13,4,7,3,-2,83,62,41,30.36,30.29,30.24,10,10,10,15,6,18,0.00,0,,296
2013-1-2,30,21,11,22,16,4,88,76,63,30.23,30.15,30.07,10,10,7,18,10,22,T,4,Snow,236
2013-1-3,30,21,11,25,16,8,92,76,59,30.43,30.35,30.22,10,10,8,22,10,29,0.00,4,,289
2013-1-4,37,25,12,22,18,9,92,72,52,30.38,30.30,30.22,10,10,0,17,10,21,0.00,0,,218
2013-1-5,39,31,23,31,25,20,89,80,70,30.21,30.10,29.98,10,10,7,25,13,31,T,4,Snow,228
2013-1-6,36,26,16,19,16,12,88,68,47,30.36,30.28,30.14,10,10,9,24,10,31,0.00,1,,268
2013-1-7,46,35,24,25,22,17,77,64,42,30.25,30.12,30.03,10,10,10,20,11,29,0.00,0,,188
2013-1-8,49,39,29,31,28,24,85,68,50,30.14,30.01,29.90,10,10,10,22,11,29,0.00,0,,198
2013-1-9,53,41,29,33,26,20,85,60,35,30.43,30.36,30.17,10,10,10,13,7,15,0.00,0,,245
2013-1-10,45,40,35,40,34,21,100,71,41,30.39,29.99,29.74,10,4,0,15,7,24,0.39,7,Fog-Rain,126
2013-1-11,52,46,39,46,43,39,100,87,61,29.75,29.62,29.52,10,6,0,20,11,30,0.01,4,Fog,182
2013-1-12,44,31,16,36,17,8,87,69,53,30.12,29.98,29.68,10,10,7,24,17,33,0.00,5,,305
2013-1-13,22,15,8,8,4,1,80,66,52,30.38,30.20,30.05,10,10,10,18,11,24,0.00,3,,311
2013-1-14,28,18,7,10,6,2,84,61,40,30.54,30.46,30.38,10,10,10,8,5,,0.00,0,,241
2013-1-15,31,22,13,12,9,7,80,60,39,30.43,30.31,30.14,10,10,10,10,6,14,0.00,1,,198
2013-1-16,47,32,16,30,22,9,82,66,49,30.20,30.06,29.98,10,10,10,21,12,28,0.00,2,,260
2013-1-17,42,31,20,27,21,12,88,64,40,30.49,30.38,30.24,10,10,10,21,6,26,0.00,2,,321
2013-1-18,56,42,27,30,27,20,85,60,35,30.38,30.11,29.94,10,10,10,32,17,45,0.00,0,,210
2013-1-19,56,40,24,30,27,9,82,59,35,30.29,30.01,29.89,10,10,10,28,15,37,0.00,0,,272
2013-1-20,24,18,11,10,6,2,80,63,45,30.43,30.38,30.31,10,10,8,20,8,25,T,3,Snow,345
2013-1-21,13,8,2,5,-4,-9,76,61,46,30.49,30.43,30.40,10,10,10,24,13,31,0.00,5,,315
2013-1-22,16,12,7,3,0,-6,73,63,53,30.48,30.41,30.35,10,10,5,8,3,9,T,6,Snow,80
2013-1-23,37,23,8,17,8,-2,91,66,41,30.53,30.31,30.22,10,10,10,22,12,29,0.00,0,,308
2013-1-24,20,12,3,6,-2,-6,72,58,43,30.61,30.46,30.26,10,10,10,17,9,22,0.00,2,,91
2013-1-25,46,30,14,21,15,7,73,54,34,30.29,30.19,30.12,10,10,10,20,10,25,0.00,2,,274
2013-1-26,41,26,11,15,10,3,75,54,33,30.37,30.27,30.15,10,10,10,14,8,20,0.00,0,,115
2013-1-27,47,40,32,46,36,16,100,75,49,30.14,29.89,29.74,10,3,0,17,10,23,0.37,8,Fog-Rain,155
2013-1-28,60,48,36,55,44,35,100,94,87,29.91,29.80,29.62,10,2,0,15,8,21,0.01,6,Fog,99
2013-1-29,62,47,32,57,41,30,96,91,85,29.65,29.57,29.52,10,6,0,26,13,35,0.40,7,Fog-Rain-Snow-Thunderstorm,324
2013-1-30,32,26,19,30,20,12,92,80,68,29.93,29.65,29.46,10,3,0,32,20,40,0.22,8,Fog-Snow,326
2013-1-31,19,9,-1,10,-2,-9,80,70,60,30.47,30.19,29.94,10,9,2,30,16,36,T,3,Snow,301